Weather History for Atlanta Dekalb, GA

Change the Weather History Date:

Monday, January 14, 2013

  Actual Average Record
Temperature  
Mean Temperature 56 °F 42 °F  
Max Temperature 64 °F 51 °F 71 °F (2007)
Min Temperature 48 °F 33 °F 18 °F (2011)
Degree Days  
Heating Degree Days 9 23  
Month to date heating degree days 322  
Since 1 July heating degree days 1490  
Growing Degree Days 6 (Base 50)    
Moisture  
Dew Point 56 °F    
Average Humidity 96    
Maximum Humidity 100    
Minimum Humidity 88    
Precipitation  
Precipitation 0.56 in 0.14 in 0.56 in (2013)
Month to date precipitation 1.65  
Year to date precipitation 1.65  
Snow  
Snow 0.00 in - - ()
Month to date snowfall  
Since 1 July snowfall  
Snow Depth -    
Sea Level Pressure  
Sea Level Pressure 30.09 in    
Wind  
Wind Speed 7 mph (WSW)    
Max Wind Speed 14 mph    
Max Gust Speed 21 mph    
Visibility 6 miles    
Events Rain    
T = Trace of Precipitation, MM = Missing Value Source: NWS Daily Summary

Daily Weather History Graph

Daily Weather History Graph

Search for Another Location

Airport:

Trip Planner

Search our weather history database for the weather conditions in past years. The results will help you decide how hot, cold, wet, or windy it might be!

Date:

Astronomy

Jan. 14, 2013 Rise Set
Actual Time 7:42 AM EST 5:50 PM EST
Civil Twilight 7:15 AM EST 6:17 PM EST
Nautical Twilight 6:44 AM EST 6:48 PM EST
Astronomical Twilight 6:14 AM EST 7:18 PM EST
Moon 9:26 AM EST (1/14) 9:22 PM EST (1/14)
Length of Visible Light 11h 02m
Length of Day
10h 08m
Waxing Crescent, 11% of the Moon is Illuminated
Jan 14
Waxing Crescent
Jan 18
First Quarter
Jan 26
Full
Feb 3
Last Quarter
Feb 10
New

Hourly Weather History & Observations

Time (EST) Temp. Dew Point Humidity Pressure Visibility Wind Dir Wind Speed Gust Speed Precip Events Conditions
12:17 AM 64.4 °F 60.8 °F 88% 30.06 in 8.0 mi South 6.9 mph - 0.00 in Rain Light Rain
12:33 AM 64.4 °F 60.8 °F 88% 30.06 in 6.0 mi South 6.9 mph - 0.01 in Rain Light Rain
12:53 AM 64.4 °F 60.8 °F 88% 30.06 in 3.0 mi South 8.1 mph - N/A Rain Heavy Rain
1:12 AM 62.6 °F 62.6 °F 100% 30.06 in 4.0 mi SSW 4.6 mph - 0.05 in Rain Light Rain
1:25 AM 62.6 °F 62.6 °F 100% 30.06 in 7.0 mi West 4.6 mph - 0.06 in Rain Light Rain
1:53 AM 63.0 °F 62.1 °F 97% 30.04 in 7.0 mi South 6.9 mph - 0.07 in Rain Light Rain
2:05 AM 62.6 °F 62.6 °F 100% 30.06 in 7.0 mi South 6.9 mph - 0.01 in Rain Light Rain
2:50 AM 62.6 °F 62.6 °F 100% 30.05 in 6.0 mi South 5.8 mph - 0.02 in Rain Light Rain
2:53 AM 63.0 °F 62.1 °F 97% 30.03 in 7.0 mi South 5.8 mph - 0.02 in Rain Light Rain
3:53 AM 64.0 °F 63.0 °F 96% 30.02 in 9.0 mi South 6.9 mph - 0.00 in Rain Light Rain
4:53 AM 64.0 °F 63.0 °F 96% 30.01 in 8.0 mi South 5.8 mph - 0.01 in   Overcast
5:53 AM 64.0 °F 63.0 °F 96% 30.03 in 7.0 mi South 6.9 mph - 0.00 in Rain Light Rain
6:53 AM 64.0 °F 63.0 °F 96% 30.05 in 5.0 mi South 8.1 mph - 0.04 in Rain Light Rain
7:53 AM 64.0 °F 64.0 °F 100% 30.06 in 5.0 mi South 8.1 mph - 0.05 in Rain Light Rain
8:53 AM 64.9 °F 64.0 °F 97% 30.07 in 7.0 mi South 12.7 mph - 0.03 in   Overcast
9:53 AM 64.9 °F 64.0 °F 97% 30.09 in 6.0 mi SSW 12.7 mph 18.4 mph 0.02 in Rain Light Rain
10:01 AM 64.4 °F 64.4 °F 100% 30.12 in 1.8 mi SSW 13.8 mph 20.7 mph 0.04 in Rain Heavy Rain
10:23 AM 64.4 °F 64.4 °F 100% 30.11 in 3.0 mi South 6.9 mph - 0.15 in Rain Rain
10:26 AM 64.4 °F 64.4 °F 100% 30.12 in 2.5 mi SW 11.5 mph - 0.16 in Rain Rain
10:53 AM 55.9 °F 55.0 °F 97% 30.12 in 2.5 mi NW 8.1 mph - 0.22 in Rain Rain
11:01 AM 53.6 °F 53.6 °F 100% 30.13 in 1.0 mi NW 5.8 mph 16.1 mph 0.01 in Rain Light Rain
11:22 AM 53.6 °F 51.8 °F 94% 30.13 in 7.0 mi NW 6.9 mph - 0.02 in Rain Light Rain
11:38 AM 53.6 °F 51.8 °F 94% 30.12 in 7.0 mi NW 6.9 mph - 0.02 in Rain Light Rain
11:53 AM 52.0 °F 52.0 °F 100% 30.11 in 9.0 mi West 5.8 mph - 0.02 in Rain Light Rain
12:53 PM 53.1 °F 52.0 °F 96% 30.08 in 8.0 mi West 5.8 mph - 0.01 in   Overcast
1:53 PM 53.1 °F 52.0 °F 96% 30.07 in 9.0 mi NW 3.5 mph - 0.00 in   Overcast
2:53 PM 55.0 °F 53.1 °F 93% 30.06 in 8.0 mi Calm Calm - N/A   Overcast
3:53 PM 55.9 °F 54.0 °F 93% 30.07 in 8.0 mi WNW 3.5 mph - N/A   Overcast
4:06 PM 55.4 °F 53.6 °F 94% 30.09 in 8.0 mi NW 3.5 mph - N/A   Overcast
4:53 PM 55.9 °F 54.0 °F 93% 30.10 in 8.0 mi Calm Calm - N/A   Overcast
5:21 PM 55.4 °F 53.6 °F 94% 30.11 in 8.0 mi Calm Calm - N/A   Scattered Clouds
5:53 PM 55.9 °F 54.0 °F 93% 30.10 in 9.0 mi NNW 3.5 mph - N/A   Overcast
6:13 PM 55.4 °F 53.6 °F 94% 30.14 in 3.0 mi West 8.1 mph - 0.03 in Rain Rain
6:17 PM 55.4 °F 53.6 °F 94% 30.13 in 3.0 mi West 8.1 mph - 0.03 in Rain Light Rain
6:27 PM 55.4 °F 53.6 °F 94% 30.13 in 8.0 mi NW 5.8 mph - 0.03 in   Overcast
6:53 PM 54.0 °F 53.1 °F 97% 30.12 in 6.0 mi NW 9.2 mph - 0.04 in Rain Light Rain
7:53 PM 51.1 °F 50.0 °F 96% 30.14 in 8.0 mi WNW 9.2 mph - 0.00 in   Overcast
8:53 PM 48.9 °F 48.0 °F 97% 30.14 in 8.0 mi WNW 9.2 mph - 0.00 in Rain Light Rain
9:53 PM 48.0 °F 46.9 °F 96% 30.14 in 3.0 mi WNW 5.8 mph - 0.01 in Rain Light Rain
10:15 PM 48.2 °F 46.4 °F 93% 30.13 in 6.0 mi Calm Calm - 0.01 in Rain Light Rain
10:48 PM 48.2 °F 46.4 °F 93% 30.15 in 9.0 mi West 8.1 mph - 0.01 in   Overcast
10:53 PM 48.0 °F 46.9 °F 96% 30.15 in 5.0 mi WNW 5.8 mph - 0.02 in Rain Light Rain
11:37 PM 48.2 °F 46.4 °F 93% 30.13 in 10.0 mi Calm Calm - 0.00 in   Overcast
11:53 PM 48.0 °F 46.9 °F 96% 30.14 in 10.0 mi Calm Calm - 0.00 in   Overcast